Regional Weather Roundup
Issued by NWS

Home | Current Version | Previous Version | Graphics & Text | Print | Product List | Glossary On
Versions: 1 2 3 4 5 6 7 8 9 10 11 12 13 14 15 16 17 18 19 20 21 22 23 24 25 26 27 28 29 30 31 32 33 34 35 36 37 38 39 40 41 42 43 44 45 46 47 48 49 50
758
ASUS43 KLOT 280103
RWRIL

ILLINOIS REGIONAL WEATHER ROUNDUP
NATIONAL WEATHER SERVICE CHICAGO/ROMEOVILLE IL
800 PM CDT SUN MAY 27 2018

NOTE: "FAIR" INDICATES FEW OR NO CLOUDS BELOW 12,000 FEET WITH NO
SIGNIFICANT WEATHER AND/OR OBSTRUCTIONS TO VISIBILITY.

* THESE STATIONS ARE NOT UNDER NWS QUALITY CONTROL. THEY ALSO MAY NOT
  REPORT WEATHER SUCH AS PRECIPITATION OR FOG.

ILZ001-002-007-009-015-016-024-280200-
NORTHWEST ILLINOIS

CITY           SKY/WX    TMP DP  RH WIND       PRES   REMARKS
MOLINE         FAIR      83  76  79 CALM      29.85R HX  91
STERLING*        N/A    N/A N/A N/A MISG        N/A
SAVANNA*       FAIR      86  69  56 CALM      29.84R HX  89
$$

ILZ003-004-008-010-011-017-018-280200-
NORTH CENTRAL ILLINOIS

CITY           SKY/WX    TMP DP  RH WIND       PRES   REMARKS
ROCKFORD       MOCLDY    86  66  51 S3        29.85S HX  88
FREEPORT*      FAIR      89  61  38 CALM      29.86R HX  89
ROCHELLE*      FAIR      88  62  42 CALM      29.86S HX  88
DE KALB*       FAIR      84  61  45 SE6       29.87S HX  84
PERU*          FAIR      92  62  37 CALM      29.85S HX  92
$$

ILZ005-006-012>014-019>023-280200-
NORTHEAST ILLINOIS

CITY           SKY/WX    TMP DP  RH WIND       PRES   REMARKS
CHICAGO-OHARE  FAIR      87  60  40 SE6       29.85S HX  87
CHICAGO-MIDWAY FAIR      87  63  44 SE9       29.86S HX  88
AURORA         FAIR      86  61  42 NE5       29.86R HX  86
LANSING*       FAIR      85  63  46 NE3       29.88R HX  86
JOLIET*        FAIR      86  64  48 E6        29.86R HX  87
WAUKEGAN       MOCLDY    78  67  68 SE3       29.85S HX  80
DUPAGE AIRPORT FAIR      86  64  47 E5        29.86R HX  87
KANKAKEE*      FAIR      89  61  39 S5        29.87R HX  89
WHEELING       FAIR      86  63  45 SE5       29.87S HX  87
MORRIS*        FAIR      88  55  32 E6        29.84S HX  86
ROMEOVILLE*    FAIR      85  64  49 E6        29.86S HX  86
$$

LMZ740>746-280200-
SOUTHERN LAKE MICHIGAN

STATION/POSITION SKY/WX   TEMP    WIND        PRES    VSBY  WAVE
                          AIR SEA DIR/SP/G                  HT/PER
                          (F)     (DEG/KT/KT) (MB)    (MI)  (FT/S)
SOUTHERN BUOY              65 47  140/  8/  8 1011.6          0
WILMETTE HARBOR            66 61  160/  6/ 10   N/A           1
HARRISON CRIB              73     160/  9/ 10   N/A
BURNHAM HARBOR                    170/  6       N/A
CALUMET HARBOR             76     100/  4/  5 1011.3S
BURNS HARBOR               71      CALM  /  5 1012.2S
MICHIGAN CITY              85      50/  4/  5   N/A
MICHIGAN CITY 6N           74 69  100/  4/  4   N/A           0
ST. JOSEPH                 75 69   90/  2/  4 1011.4R         0
$$

ILZ025>027-034>036-040-047-049-050-058-095>099-280200-
WEST-CENTRAL ILLINOIS

CITY           SKY/WX    TMP DP  RH WIND       PRES   REMARKS
QUINCY         CLOUDY    84  66  54 NE5       29.86R HX  86
GALESBURG*     FAIR      86  65  49 E3        29.87S HX  87
MACOMB*        CLOUDY    82  74  77 E3        29.88S HX  87
JACKSONVILLE*  CLOUDY    83  72  68 S5        29.87R HX  88
PITTSFIELD*    CLOUDY    80  72  76 CALM      29.87S HX  85
$$

ILZ028>032-037-038-041>044-048-051>054-059>061-280200-
CENTRAL ILLINOIS

CITY           SKY/WX    TMP DP  RH WIND       PRES   REMARKS
PONTIAC        FAIR      91  57  31 E5        29.87R HX  90
BLOOMINGTON    FAIR      85  66  53 SE7       29.88R HX  87
DECATUR        FAIR      83  68  60 SW5       29.88R HX  86
PEORIA         FAIR      83  70  64 W3        29.86R HX  87
LACON*         FAIR      83  71  67 CALM      29.84R HX  87
LINCOLN*       FAIR      86  72  63 CALM      29.87R HX  92
SPRINGFIELD    FAIR      85  71  63 S5        29.87R HX  90
TAYLORVILLE    FAIR      77  72  83 S6        29.89R
$$

ILZ033-039-045-046-055>057-062-063-280200-
EAST-CENTRAL ILLINOIS

CITY           SKY/WX    TMP DP  RH WIND       PRES   REMARKS
CHAMPAIGN      FAIR      84  70  62 S5        29.88R HX  88
DANVILLE*      FAIR      85  69  58 CALM      29.86S HX  89
RANTOUL*       FAIR      86  73  63 S5        29.88R HX  93
MATTOON        FAIR      79  71  76 CALM      29.89R HX  82
PARIS*         FAIR      79  74  85 CALM      29.90R HX  83
$$

ILZ079-100>102-280200-
SOUTHWEST ILLINOIS

CITY           SKY/WX    TMP DP  RH WIND       PRES   REMARKS
ALTON          MOCLDY    73  72  94 CALM      29.88R
CAHOKIA*       CLOUDY    82  69  64 SE8       29.85F HX  85
SPARTA*        MOCLDY    78  70  75 NE12      29.89F HX  81
$$

ILZ064>066-069>071-074>076-080>082-084>086-088>090-092>094-280200-
SOUTH-CENTRAL ILLINOIS

CITY           SKY/WX    TMP DP  RH WIND       PRES   REMARKS
CARBONDALE     FAIR      79  72  79 CALM      29.87R HX  82
CAIRO*         FAIR      83  73  69 N5        29.86R HX  89
EFFINGHAM*     FAIR      78  73  82 E6        29.91R HX  81
MARION         FAIR      75  74  98 CALM      29.89R
MT. VERNON     FAIR      76  70  82 CALM      29.89R
CENTRALIA*     MOCLDY    79  73  81 SE3       29.88S HX  82
SALEM*         FAIR      79  74  84 CALM      29.89R HX  82
METROPOLIS*    FAIR      81  71  72 CALM      29.88R HX  84
$$

ILZ067-068-072-073-078-083-087-091-280200-
SOUTHEAST ILLINOIS

CITY           SKY/WX    TMP DP  RH WIND       PRES   REMARKS
LAWRENCEVILLE  FAIR      86  65  49 S5        29.88R HX  88
FLORA*         FAIR      85  72  65 CALM      29.89R HX  90
FAIRFIELD*     FAIR      76  71  84 CALM      29.88R
HARRISBURG*    FAIR      76  73  89 NW5       29.88R
ROBINSON*      FAIR      81  71  71 CALM      29.89R HX  85
CARMI*         FAIR      78  70  77 NW5       29.88R HX  80
$$

ABBREVIATIONS USED IN REMARKS
   TC - TEMPERATURE IN CELSIUS
  WCI - WIND CHILL INDEX
   HX - HEAT INDEX
  VSB - VISIBILITY
$$





USA.gov is the U.S. government's official web portal to all federal, state and local government web resources and services.